Weather History for Tyler, TX

Change the Weather History Date:

Friday, December 13, 2013

  Actual Average Record
Temperature  
Mean Temperature 43 °F 48 °F  
Max Temperature 46 °F 58 °F 80 °F (1921)
Min Temperature 39 °F 39 °F 15 °F (1962)
Degree Days  
Heating Degree Days 22 17  
Month to date heating degree days 254 208  
Since 1 July heating degree days 644 582  
Cooling Degree Days 0 0  
Month to date cooling degree days 5 0  
Year to date cooling degree days 2772 2411  
Moisture  
Dew Point 37 °F    
Average Humidity 75    
Maximum Humidity 100    
Minimum Humidity 49    
Precipitation  
Precipitation 0.74 in 0.14 in 1.91 in (1918)
Month to date precipitation 1.55 1.71  
Year to date precipitation 40.56 43.26  
Snow  
Snow 0.00 in - - ()
Month to date snowfall T  
Since 1 July snowfall T  
Snow Depth 0.00 in    
Sea Level Pressure  
Sea Level Pressure 30.01 in    
Wind  
Wind Speed 7 mph (SSE)    
Max Wind Speed 15 mph    
Max Gust Speed 17 mph    
Visibility 6 miles    
Events Rain    
T = Trace of Precipitation, MM = Missing Value Source: NWS Daily Summary

Daily Weather History Graph

Daily Weather History Graph

Search for Another Location

Airport:

Trip Planner

Search our weather history database for the weather conditions in past years. The results will help you decide how hot, cold, wet, or windy it might be!

Date:

Astronomy

Dec. 13, 2013 Rise Set
Actual Time 7:14 AM CST 5:17 PM CST
Civil Twilight 6:47 AM CST 5:44 PM CST
Nautical Twilight 6:16 AM CST 6:15 PM CST
Astronomical Twilight 5:46 AM CST 6:45 PM CST
Moon 2:53 PM CST (12/13) 3:46 AM CST (12/13)
Length of Visible Light 10h 57m
Length of Day
10h 03m
Waxing Gibbous, 88% of the Moon is Illuminated
Dec 13
Waxing Gibbous
Dec 17
Full
Dec 25
Last Quarter
Jan 1
New
Jan 7
First Quarter

Hourly Weather History & Observations

Time (CST) Temp. Windchill Dew Point Humidity Pressure Visibility Wind Dir Wind Speed Gust Speed Precip Events Conditions
12:53 AM 42.1 °F 37.7 °F 27.0 °F 55% 30.33 in 10.0 mi SSE 6.9 mph - N/A   Clear
1:53 AM 43.0 °F 38.2 °F 26.1 °F 51% 30.28 in 10.0 mi SSE 8.1 mph - N/A   Clear
2:53 AM 43.0 °F 37.2 °F 25.0 °F 49% 30.26 in 10.0 mi SE 10.4 mph - N/A   Clear
3:53 AM 41.0 °F 35.8 °F 26.1 °F 55% 30.27 in 10.0 mi South 8.1 mph - N/A   Clear
4:53 AM 39.9 °F 34.5 °F 27.0 °F 60% 30.24 in 10.0 mi SE 8.1 mph - N/A   Clear
5:53 AM 39.9 °F 35.1 °F 28.0 °F 63% 30.24 in 10.0 mi South 6.9 mph - N/A   Partly Cloudy
6:53 AM 41.0 °F 37.1 °F 28.0 °F 60% 30.22 in 10.0 mi ESE 5.8 mph - N/A   Overcast
7:53 AM 41.0 °F 36.4 °F 27.0 °F 57% 30.20 in 10.0 mi SSE 6.9 mph - N/A   Overcast
8:53 AM 43.0 °F 36.8 °F 27.0 °F 53% 30.16 in 10.0 mi SSE 11.5 mph - N/A   Overcast
9:53 AM 39.9 °F 33.9 °F 33.1 °F 77% 30.18 in 10.0 mi SSE 9.2 mph - 0.01 in Rain Light Rain
10:53 AM 39.0 °F 32.8 °F 36.0 °F 89% 30.13 in 7.0 mi SE 9.2 mph - 0.07 in Rain Light Rain
11:53 AM 39.9 °F 37.8 °F 37.0 °F 89% 30.12 in 10.0 mi South 3.5 mph - 0.03 in Rain Light Rain
12:53 PM 41.0 °F 35.8 °F 37.0 °F 86% 30.04 in 10.0 mi SE 8.1 mph - 0.00 in   Overcast
1:16 PM 41.0 °F 36.4 °F 37.4 °F 87% 30.03 in 9.0 mi SE 6.9 mph - 0.00 in Rain Light Rain
1:44 PM 41.0 °F 35.2 °F 37.4 °F 87% 30.00 in 4.0 mi SE 9.2 mph - 0.02 in Rain Light Rain
1:53 PM 41.0 °F 34.7 °F 37.9 °F 89% 29.99 in 4.0 mi SE 10.4 mph - 0.02 in Rain Light Rain
2:31 PM 41.0 °F 35.2 °F 39.2 °F 93% 29.96 in 6.0 mi SE 9.2 mph - 0.01 in Rain Light Rain
2:41 PM 41.0 °F 35.2 °F 39.2 °F 93% 29.96 in 7.0 mi SE 9.2 mph - 0.01 in Rain Light Rain
2:53 PM 41.0 °F 35.8 °F 39.9 °F 96% 29.95 in 6.0 mi SE 8.1 mph - 0.02 in Rain Light Rain
3:09 PM 41.0 °F - 41.0 °F 100% 29.96 in 7.0 mi Calm Calm - 0.01 in Rain Light Rain
3:23 PM 42.8 °F 41.1 °F 42.8 °F 100% 29.96 in 2.0 mi NNW 3.5 mph - 0.08 in Rain Heavy Rain
3:37 PM 42.8 °F - 42.8 °F 100% 29.96 in 3.0 mi Calm Calm - 0.11 in Rain Light Rain
3:49 PM 42.8 °F - 42.8 °F 100% 29.96 in 2.0 mi Calm Calm - 0.16 in Rain Heavy Rain
3:53 PM 41.0 °F 39.0 °F 41.0 °F 100% 29.96 in 1.8 mi NNW 3.5 mph - 0.18 in Rain Heavy Rain
4:00 PM 41.0 °F - 41.0 °F 100% 29.96 in 2.5 mi Calm Calm - 0.00 in Rain Light Rain
4:22 PM 41.0 °F - 41.0 °F 100% 29.95 in 1.8 mi Calm Calm - 0.05 in Rain Rain
4:50 PM 42.8 °F - 41.0 °F 93% 29.95 in 2.0 mi Calm Calm - 0.13 in Rain Rain
4:53 PM 42.1 °F 40.2 °F 41.0 °F 96% 29.94 in 1.8 mi SE 3.5 mph - 0.15 in Rain Heavy Rain
5:11 PM 42.8 °F - 42.8 °F 100% 29.93 in 3.0 mi Calm Calm - 0.05 in Rain Light Rain
5:29 PM 42.8 °F 41.1 °F 41.0 °F 93% 29.93 in 2.5 mi SE 3.5 mph - 0.13 in Rain Heavy Rain
5:36 PM 42.8 °F - 42.8 °F 100% 29.93 in 2.5 mi Calm Calm - 0.15 in Rain Heavy Rain
5:43 PM 42.8 °F 40.1 °F 42.8 °F 100% 29.92 in 4.0 mi SSE 4.6 mph - 0.16 in Rain Light Rain
5:53 PM 42.1 °F 38.4 °F 41.0 °F 96% 29.92 in 4.0 mi SSE 5.8 mph - 0.18 in Rain Rain
6:14 PM 42.8 °F 39.3 °F 42.8 °F 100% 29.92 in 5.0 mi SSE 5.8 mph - 0.03 in Rain Light Rain
6:42 PM 42.8 °F 40.1 °F 42.8 °F 100% 29.92 in 5.0 mi South 4.6 mph - 0.04 in Rain Light Rain
6:53 PM 43.0 °F 39.5 °F 43.0 °F 100% 29.94 in 5.0 mi West 5.8 mph - 0.04 in Rain Light Rain
7:22 PM 42.8 °F - - N/A% 29.92 in 4.0 mi Calm Calm - 0.03 in Rain Light Rain
7:40 PM 42.8 °F 41.1 °F - N/A% 29.92 in 6.0 mi SE 3.5 mph - 0.04 in Rain Light Rain
7:53 PM 43.0 °F 38.2 °F - N/A% 29.90 in 6.0 mi SE 8.1 mph - 0.04 in   Haze
8:35 PM 44.6 °F 43.1 °F - N/A% 29.91 in 10.0 mi SSE 3.5 mph - N/A   Overcast
8:53 PM 44.1 °F 42.5 °F - N/A% 29.91 in 10.0 mi South 3.5 mph - 0.00 in   Overcast
9:53 PM 44.1 °F 40.8 °F - N/A% 29.88 in 10.0 mi South 5.8 mph - N/A   Overcast
10:00 PM 44.6 °F 42.2 °F - N/A% 29.88 in 10.0 mi South 4.6 mph - N/A   Overcast
10:12 PM 44.6 °F 41.4 °F - N/A% 29.88 in 9.0 mi South 5.8 mph - N/A   Overcast
10:42 PM 42.8 °F 39.3 °F - N/A% 29.87 in 9.0 mi South 5.8 mph - N/A   Overcast
10:53 PM 44.1 °F 40.8 °F - N/A% 29.87 in 8.0 mi South 5.8 mph - N/A   Overcast
11:53 PM 46.0 °F 41.0 °F - N/A% 29.86 in 7.0 mi South 10.4 mph - N/A   Overcast